"Time","Value","Approval","myLocation"
"2023-04-18 00:00",52.951,"Working","OW364"
"2023-04-18 01:00",52.91,"Working","OW364"
"2023-04-18 02:00",52.892,"Working","OW364"
"2023-04-18 03:00",52.895,"Working","OW364"
"2023-04-18 04:00",52.899,"Working","OW364"
"2023-04-18 05:00",53.037,"Working","OW364"
"2023-04-18 06:00",53.077,"Working","OW364"
"2023-04-18 07:00",52.952,"Working","OW364"
"2023-04-18 08:00",52.907,"Working","OW364"
"2023-04-18 09:00",52.889,"Working","OW364"
"2023-04-18 10:00",52.88,"Working","OW364"
"2023-04-18 11:00",52.875,"Working","OW364"
"2023-04-18 12:00",52.871,"Working","OW364"
"2023-04-18 13:00",52.954,"Working","OW364"
"2023-04-18 14:00",53.003,"Working","OW364"
"2023-04-18 15:00",53.011,"Working","OW364"
"2023-04-18 16:00",52.982,"Working","OW364"
"2023-04-18 17:00",52.921,"Working","OW364"
"2023-04-18 18:00",52.907,"Working","OW364"
"2023-04-18 19:00",52.903,"Working","OW364"
"2023-04-18 20:00",52.939,"Working","OW364"
"2023-04-18 21:00",53.115,"Working","OW364"
"2023-04-18 22:00",53.109,"Working","OW364"
"2023-04-18 23:00",52.955,"Working","OW364"
"2023-04-19 00:00",52.912,"Working","OW364"
"2023-04-19 01:00",52.901,"Working","OW364"
"2023-04-19 02:00",52.894,"Working","OW364"
"2023-04-19 03:00",52.887,"Working","OW364"
"2023-04-19 04:00",52.884,"Working","OW364"
"2023-04-19 05:00",53.017,"Working","OW364"
"2023-04-19 06:00",53.074,"Working","OW364"
"2023-04-19 07:00",53.096,"Working","OW364"
"2023-04-19 08:00",53.06,"Working","OW364"
"2023-04-19 09:00",52.957,"Working","OW364"
"2023-04-19 10:00",52.914,"Working","OW364"
"2023-04-19 11:00",52.899,"Working","OW364"
"2023-04-19 12:00",52.891,"Working","OW364"
"2023-04-19 13:00",52.885,"Working","OW364"
"2023-04-19 14:00",52.938,"Working","OW364"
"2023-04-19 15:00",53.004,"Working","OW364"
"2023-04-19 16:00",53.093,"Working","OW364"
"2023-04-19 17:00",53.072,"Working","OW364"
"2023-04-19 18:00",53.022,"Working","OW364"
"2023-04-19 19:00",52.912,"Working","OW364"
"2023-04-19 20:00",52.886,"Working","OW364"
"2023-04-19 21:00",52.876,"Working","OW364"
"2023-04-19 22:00",52.996,"Working","OW364"
"2023-04-19 23:00",53.12,"Working","OW364"
"2023-04-20 00:00",53.188,"Working","OW364"
"2023-04-20 01:00",53.086,"Working","OW364"
"2023-04-20 02:00",52.977,"Working","OW364"
"2023-04-20 03:00",52.902,"Working","OW364"
"2023-04-20 04:00",52.912,"Working","OW364"
"2023-04-20 05:00",52.889,"Working","OW364"
"2023-04-20 06:00",52.885,"Working","OW364"
"2023-04-20 07:00",52.988,"Working","OW364"
"2023-04-20 08:00",53.008,"Working","OW364"
"2023-04-20 09:00",52.918,"Working","OW364"
"2023-04-20 10:00",52.888,"Working","OW364"
"2023-04-20 11:00",52.872,"Working","OW364"
"2023-04-20 12:00",52.863,"Working","OW364"
"2023-04-20 13:00",52.858,"Working","OW364"
"2023-04-20 14:00",52.862,"Working","OW364"
"2023-04-20 15:00",53.024,"Working","OW364"
"2023-04-20 16:00",53.07,"Working","OW364"
"2023-04-20 17:00",53.086,"Working","OW364"
"2023-04-20 18:00",52.937,"Working","OW364"
"2023-04-20 19:00",52.89,"Working","OW364"
"2023-04-20 20:00",52.879,"Working","OW364"
"2023-04-20 21:00",52.912,"Working","OW364"
"2023-04-20 22:00",52.848,"Working","OW364"
"2023-04-20 23:00",52.949,"Working","OW364"
"2023-04-21 00:00",52.97,"Working","OW364"
"2023-04-21 01:00",52.898,"Working","OW364"
"2023-04-21 02:00",52.858,"Working","OW364"
"2023-04-21 03:00",52.853,"Working","OW364"
"2023-04-21 04:00",52.832,"Working","OW364"
"2023-04-21 05:00",52.82,"Working","OW364"
"2023-04-21 06:00",52.817,"Working","OW364"
"2023-04-21 07:00",52.973,"Working","OW364"
"2023-04-21 08:00",53.017,"Working","OW364"
"2023-04-21 09:00",52.9,"Working","OW364"
"2023-04-21 10:00",52.854,"Working","OW364"
"2023-04-21 11:00",52.836,"Working","OW364"
"2023-04-21 12:00",52.83,"Working","OW364"
"2023-04-21 13:00",52.825,"Working","OW364"
"2023-04-21 14:00",52.886,"Working","OW364"
"2023-04-21 15:00",52.953,"Working","OW364"
"2023-04-21 16:00",52.953,"Working","OW364"
"2023-04-21 17:00",52.994,"Working","OW364"
"2023-04-21 18:00",52.876,"Working","OW364"
"2023-04-21 19:00",52.847,"Working","OW364"
"2023-04-21 20:00",52.839,"Working","OW364"
"2023-04-21 21:00",52.82,"Working","OW364"
"2023-04-21 22:00",52.8,"Working","OW364"
"2023-04-21 23:00",52.947,"Working","OW364"
"2023-04-22 00:00",52.98,"Working","OW364"
"2023-04-22 01:00",52.897,"Working","OW364"
"2023-04-22 02:00",52.821,"Working","OW364"
"2023-04-22 03:00",52.794,"Working","OW364"
"2023-04-22 04:00",52.782,"Working","OW364"
"2023-04-22 05:00",52.773,"Working","OW364"
"2023-04-22 06:00",52.766,"Working","OW364"
"2023-04-22 07:00",52.881,"Working","OW364"
"2023-04-22 08:00",52.895,"Working","OW364"
"2023-04-22 09:00",52.899,"Working","OW364"
"2023-04-22 10:00",52.802,"Working","OW364"
"2023-04-22 11:00",52.773,"Working","OW364"
"2023-04-22 12:00",52.76,"Working","OW364"
"2023-04-22 13:00",52.752,"Working","OW364"
"2023-04-22 14:00",52.744,"Working","OW364"
"2023-04-22 15:00",52.775,"Working","OW364"
"2023-04-22 16:00",52.904,"Working","OW364"
"2023-04-22 17:00",52.955,"Working","OW364"
"2023-04-22 18:00",53.026,"Working","OW364"
"2023-04-22 19:00",52.919,"Working","OW364"
"2023-04-22 20:00",52.812,"Working","OW364"
"2023-04-22 21:00",52.813,"Working","OW364"
"2023-04-22 22:00",52.77,"Working","OW364"
"2023-04-22 23:00",52.812,"Working","OW364"
"2023-04-23 00:00",52.749,"Working","OW364"
"2023-04-23 01:00",52.822,"Working","OW364"
"2023-04-23 02:00",52.833,"Working","OW364"
"2023-04-23 03:00",52.737,"Working","OW364"
"2023-04-23 04:00",52.712,"Working","OW364"
"2023-04-23 05:00",52.707,"Working","OW364"
"2023-04-23 06:00",52.706,"Working","OW364"
"2023-04-23 07:00",52.688,"Working","OW364"
"2023-04-23 08:00",52.698,"Working","OW364"
"2023-04-23 09:00",52.85,"Working","OW364"
"2023-04-23 10:00",52.887,"Working","OW364"
"2023-04-23 11:00",52.868,"Working","OW364"
"2023-04-23 12:00",52.746,"Working","OW364"
"2023-04-23 13:00",52.719,"Working","OW364"
"2023-04-23 14:00",52.703,"Working","OW364"
"2023-04-23 15:00",52.702,"Working","OW364"
"2023-04-23 16:00",52.711,"Working","OW364"
"2023-04-23 17:00",52.807,"Working","OW364"
"2023-04-23 18:00",52.833,"Working","OW364"
"2023-04-23 19:00",52.832,"Working","OW364"
"2023-04-23 20:00",52.855,"Working","OW364"
"2023-04-23 21:00",52.741,"Working","OW364"
"2023-04-23 22:00",52.719,"Working","OW364"
"2023-04-23 23:00",52.707,"Working","OW364"
"2023-04-24 00:00",52.708,"Working","OW364"
"2023-04-24 01:00",52.807,"Working","OW364"
"2023-04-24 02:00",52.9,"Working","OW364"
"2023-04-24 03:00",52.876,"Working","OW364"
"2023-04-24 04:00",52.74,"Working","OW364"
"2023-04-24 05:00",52.714,"Working","OW364"
"2023-04-24 06:00",52.701,"Working","OW364"
"2023-04-24 07:00",52.713,"Working","OW364"
"2023-04-24 08:00",52.693,"Working","OW364"
"2023-04-24 09:00",52.693,"Working","OW364"
"2023-04-24 10:00",52.792,"Working","OW364"
"2023-04-24 11:00",52.817,"Working","OW364"
"2023-04-24 12:00",52.83,"Working","OW364"
"2023-04-24 13:00",52.732,"Working","OW364"
"2023-04-24 14:00",52.712,"Working","OW364"
"2023-04-24 15:00",52.702,"Working","OW364"
"2023-04-24 16:00",52.696,"Working","OW364"
"2023-04-24 17:00",52.694,"Working","OW364"
"2023-04-24 18:00",52.812,"Working","OW364"
"2023-04-24 19:00",52.888,"Working","OW364"
"2023-04-24 20:00",52.97,"Working","OW364"
"2023-04-24 21:00",52.885,"Working","OW364"
"2023-04-24 22:00",52.839,"Working","OW364"
"2023-04-24 23:00",52.762,"Working","OW364"
"2023-04-25 00:00",52.758,"Working","OW364"
"2023-04-25 01:00",52.689,"Working","OW364"
"2023-04-25 02:00",52.774,"Working","OW364"
"2023-04-25 03:00",52.796,"Working","OW364"
"2023-04-25 04:00",52.806,"Working","OW364"
"2023-04-25 05:00",52.756,"Working","OW364"
"2023-04-25 06:00",52.69,"Working","OW364"
"2023-04-25 07:00",52.675,"Working","OW364"
"2023-04-25 08:00",52.665,"Working","OW364"
"2023-04-25 09:00",52.66,"Working","OW364"
"2023-04-25 10:00",52.794,"Working","OW364"
"2023-04-25 11:00",52.844,"Working","OW364"
"2023-04-25 12:00",52.865,"Working","OW364"
"2023-04-25 13:00",52.728,"Working","OW364"
"2023-04-25 14:00",52.71,"Working","OW364"
"2023-04-25 15:00",52.678,"Working","OW364"
"2023-04-25 16:00",52.701,"Working","OW364"
"2023-04-25 17:00",52.67,"Working","OW364"
"2023-04-25 18:00",52.753,"Working","OW364"
"2023-04-25 19:00",52.782,"Working","OW364"
"2023-04-25 20:00",52.787,"Working","OW364"
"2023-04-25 21:00",52.721,"Working","OW364"
"2023-04-25 22:00",52.655,"Working","OW364"
"2023-04-25 23:00",52.648,"Working","OW364"
"2023-04-26 00:00",52.689,"Working","OW364"
"2023-04-26 01:00",52.713,"Working","OW364"
"2023-04-26 02:00",52.831,"Working","OW364"
"2023-04-26 03:00",52.865,"Working","OW364"
"2023-04-26 04:00",52.706,"Working","OW364"
"2023-04-26 05:00",52.664,"Working","OW364"
"2023-04-26 06:00",52.644,"Working","OW364"
"2023-04-26 07:00",52.611,"Working","OW364"
"2023-04-26 08:00",52.596,"Working","OW364"
"2023-04-26 09:00",52.586,"Working","OW364"
"2023-04-26 10:00",52.678,"Working","OW364"
"2023-04-26 11:00",52.701,"Working","OW364"
"2023-04-26 12:00",52.703,"Working","OW364"
"2023-04-26 13:00",52.596,"Working","OW364"
"2023-04-26 14:00",52.569,"Working","OW364"
"2023-04-26 15:00",52.601,"Working","OW364"
"2023-04-26 16:00",52.569,"Working","OW364"
"2023-04-26 17:00",52.573,"Working","OW364"
"2023-04-26 18:00",52.714,"Working","OW364"
"2023-04-26 19:00",52.76,"Working","OW364"
"2023-04-26 20:00",52.751,"Working","OW364"
"2023-04-26 21:00",52.689,"Working","OW364"
"2023-04-26 22:00",52.593,"Working","OW364"
"2023-04-26 23:00",52.597,"Working","OW364"
"2023-04-27 00:00",52.585,"Working","OW364"
"2023-04-27 01:00",52.568,"Working","OW364"
"2023-04-27 02:00",52.664,"Working","OW364"
"2023-04-27 03:00",52.695,"Working","OW364"
"2023-04-27 04:00",52.694,"Working","OW364"
"2023-04-27 05:00",52.59,"Working","OW364"
"2023-04-27 06:00",52.568,"Working","OW364"
"2023-04-27 07:00",52.56,"Working","OW364"
"2023-04-27 08:00",52.553,"Working","OW364"
"2023-04-27 09:00",52.546,"Working","OW364"
"2023-04-27 10:00",52.672,"Working","OW364"
"2023-04-27 11:00",52.717,"Working","OW364"
"2023-04-27 12:00",52.698,"Working","OW364"
"2023-04-27 13:00",52.581,"Working","OW364"
"2023-04-27 14:00",52.548,"Working","OW364"
"2023-04-27 15:00",52.564,"Working","OW364"
"2023-04-27 16:00",52.531,"Working","OW364"
"2023-04-27 17:00",52.545,"Working","OW364"
"2023-04-27 18:00",52.629,"Working","OW364"
"2023-04-27 19:00",52.639,"Working","OW364"
"2023-04-27 20:00",52.717,"Working","OW364"
"2023-04-27 21:00",52.633,"Working","OW364"
"2023-04-27 22:00",52.527,"Working","OW364"
"2023-04-27 23:00",52.503,"Working","OW364"
"2023-04-28 00:00",52.491,"Working","OW364"
"2023-04-28 01:00",52.484,"Working","OW364"
"2023-04-28 02:00",52.615,"Working","OW364"
"2023-04-28 03:00",52.652,"Working","OW364"
"2023-04-28 04:00",52.579,"Working","OW364"
"2023-04-28 05:00",52.513,"Working","OW364"
"2023-04-28 06:00",52.471,"Working","OW364"
"2023-04-28 07:00",52.458,"Working","OW364"
"2023-04-28 08:00",52.447,"Working","OW364"
"2023-04-28 09:00",52.509,"Working","OW364"
"2023-04-28 10:00",52.555,"Working","OW364"
"2023-04-28 11:00",52.567,"Working","OW364"
"2023-04-28 12:00",52.572,"Working","OW364"
"2023-04-28 13:00",52.474,"Working","OW364"
"2023-04-28 14:00",52.452,"Working","OW364"
"2023-04-28 15:00",52.451,"Working","OW364"
"2023-04-28 16:00",52.453,"Working","OW364"
"2023-04-28 17:00",52.541,"Working","OW364"
"2023-04-28 18:00",52.591,"Working","OW364"
"2023-04-28 19:00",52.605,"Working","OW364"
"2023-04-28 20:00",52.608,"Working","OW364"
"2023-04-28 21:00",52.533,"Working","OW364"
"2023-04-28 22:00",52.514,"Working","OW364"
"2023-04-28 23:00",52.514,"Working","OW364"
"2023-04-29 00:00",52.448,"Working","OW364"
"2023-04-29 01:00",52.509,"Working","OW364"
"2023-04-29 02:00",52.556,"Working","OW364"
"2023-04-29 03:00",52.572,"Working","OW364"
"2023-04-29 04:00",52.441,"Working","OW364"
"2023-04-29 05:00",52.406,"Working","OW364"
"2023-04-29 06:00",52.426,"Working","OW364"
"2023-04-29 07:00",52.407,"Working","OW364"
"2023-04-29 08:00",52.405,"Working","OW364"
"2023-04-29 09:00",52.46,"Working","OW364"
"2023-04-29 10:00",52.537,"Working","OW364"
"2023-04-29 11:00",52.56,"Working","OW364"
"2023-04-29 12:00",52.43,"Working","OW364"
"2023-04-29 13:00",52.397,"Working","OW364"
"2023-04-29 14:00",52.382,"Working","OW364"
"2023-04-29 15:00",52.371,"Working","OW364"
"2023-04-29 16:00",52.387,"Working","OW364"
"2023-04-29 17:00",52.5,"Working","OW364"
"2023-04-29 18:00",52.506,"Working","OW364"
"2023-04-29 19:00",52.677,"Working","OW364"
"2023-04-29 20:00",52.527,"Working","OW364"
"2023-04-29 21:00",52.471,"Working","OW364"
"2023-04-29 22:00",52.391,"Working","OW364"
"2023-04-29 23:00",52.373,"Working","OW364"
"2023-04-30 00:00",52.363,"Working","OW364"
"2023-04-30 01:00",52.419,"Working","OW364"
"2023-04-30 02:00",52.501,"Working","OW364"
"2023-04-30 03:00",52.53,"Working","OW364"
"2023-04-30 04:00",52.456,"Working","OW364"
"2023-04-30 05:00",52.388,"Working","OW364"
"2023-04-30 06:00",52.371,"Working","OW364"
"2023-04-30 07:00",52.361,"Working","OW364"
"2023-04-30 08:00",52.347,"Working","OW364"
"2023-04-30 09:00",52.328,"Working","OW364"
"2023-04-30 10:00",52.424,"Working","OW364"
"2023-04-30 11:00",52.444,"Working","OW364"
"2023-04-30 12:00",52.451,"Working","OW364"
"2023-04-30 13:00",52.356,"Working","OW364"
"2023-04-30 14:00",52.358,"Working","OW364"
"2023-04-30 15:00",52.387,"Working","OW364"
"2023-04-30 16:00",52.413,"Working","OW364"
"2023-04-30 17:00",52.414,"Working","OW364"
"2023-04-30 18:00",52.495,"Working","OW364"
"2023-04-30 19:00",52.541,"Working","OW364"
"2023-04-30 20:00",52.53,"Working","OW364"
"2023-04-30 21:00",52.457,"Working","OW364"
"2023-04-30 22:00",52.395,"Working","OW364"
"2023-04-30 23:00",52.376,"Working","OW364"
"2023-05-01 00:00",52.382,"Working","OW364"
"2023-05-01 01:00",52.288,"Working","OW364"
"2023-05-01 02:00",52.338,"Working","OW364"
"2023-05-01 03:00",52.395,"Working","OW364"
"2023-05-01 04:00",52.413,"Working","OW364"
"2023-05-01 05:00",52.421,"Working","OW364"
"2023-05-01 06:00",52.348,"Working","OW364"
"2023-05-01 07:00",52.305,"Working","OW364"
"2023-05-01 08:00",52.289,"Working","OW364"
"2023-05-01 09:00",52.291,"Working","OW364"
"2023-05-01 10:00",52.28,"Working","OW364"
"2023-05-01 11:00",52.392,"Working","OW364"
"2023-05-01 12:00",52.436,"Working","OW364"
"2023-05-01 13:00",52.402,"Working","OW364"
"2023-05-01 14:00",52.303,"Working","OW364"
"2023-05-01 15:00",52.278,"Working","OW364"
"2023-05-01 16:00",52.264,"Working","OW364"
"2023-05-01 17:00",52.351,"Working","OW364"
"2023-05-01 18:00",52.389,"Working","OW364"
"2023-05-01 19:00",52.43,"Working","OW364"
"2023-05-01 20:00",52.404,"Working","OW364"
"2023-05-01 21:00",52.451,"Working","OW364"
"2023-05-01 22:00",52.349,"Working","OW364"
"2023-05-01 23:00",52.287,"Working","OW364"
"2023-05-02 00:00",52.255,"Working","OW364"
"2023-05-02 01:00",52.292,"Working","OW364"
"2023-05-02 02:00",52.388,"Working","OW364"
"2023-05-02 03:00",52.433,"Working","OW364"
"2023-05-02 04:00",52.426,"Working","OW364"
"2023-05-02 05:00",52.368,"Working","OW364"
"2023-05-02 06:00",52.284,"Working","OW364"
"2023-05-02 07:00",52.312,"Working","OW364"
"2023-05-02 08:00",52.294,"Working","OW364"
"2023-05-02 09:00",52.283,"Working","OW364"
"2023-05-02 10:00",52.335,"Working","OW364"
"2023-05-02 11:00",52.306,"Working","OW364"
"2023-05-02 12:00",52.31,"Working","OW364"
"2023-05-02 13:00",52.227,"Working","OW364"
"2023-05-02 14:00",52.191,"Working","OW364"
"2023-05-02 15:00",52.184,"Working","OW364"
"2023-05-02 16:00",52.184,"Working","OW364"
"2023-05-02 17:00",52.173,"Working","OW364"
"2023-05-02 18:00",52.276,"Working","OW364"
"2023-05-02 19:00",52.322,"Working","OW364"
"2023-05-02 20:00",52.332,"Working","OW364"
"2023-05-02 21:00",52.336,"Working","OW364"
"2023-05-02 22:00",52.211,"Working","OW364"
"2023-05-02 23:00",52.186,"Working","OW364"
"2023-05-03 00:00",52.214,"Working","OW364"
"2023-05-03 01:00",52.191,"Working","OW364"
"2023-05-03 02:00",52.256,"Working","OW364"
"2023-05-03 03:00",52.291,"Working","OW364"
"2023-05-03 04:00",52.238,"Working","OW364"
"2023-05-03 05:00",52.215,"Working","OW364"
"2023-05-03 06:00",52.134,"Working","OW364"
"2023-05-03 07:00",52.112,"Working","OW364"
"2023-05-03 08:00",52.082,"Working","OW364"
"2023-05-03 09:00",52.07,"Working","OW364"
"2023-05-03 10:00",52.064,"Working","OW364"
"2023-05-03 11:00",52.173,"Working","OW364"
"2023-05-03 12:00",52.222,"Working","OW364"
"2023-05-03 13:00",52.138,"Working","OW364"
"2023-05-03 14:00",52.083,"Working","OW364"
"2023-05-03 15:00",52.074,"Working","OW364"
"2023-05-03 16:00",52.075,"Working","OW364"
"2023-05-03 17:00",52.065,"Working","OW364"
"2023-05-03 18:00",52.124,"Working","OW364"
"2023-05-03 19:00",52.192,"Working","OW364"
"2023-05-03 20:00",52.158,"Working","OW364"
"2023-05-03 21:00",52.286,"Working","OW364"
"2023-05-03 22:00",52.118,"Working","OW364"
"2023-05-03 23:00",52.134,"Working","OW364"
"2023-05-04 00:00",52.092,"Working","OW364"
"2023-05-04 01:00",52.074,"Working","OW364"
"2023-05-04 02:00",52.098,"Working","OW364"
"2023-05-04 03:00",52.165,"Working","OW364"
"2023-05-04 04:00",52.189,"Working","OW364"
"2023-05-04 05:00",52.052,"Working","OW364"
"2023-05-04 06:00",52.048,"Working","OW364"
"2023-05-04 07:00",52.011,"Working","OW364"
"2023-05-04 08:00",52.005,"Working","OW364"
"2023-05-04 09:00",52.001,"Working","OW364"
"2023-05-04 10:00",52.04,"Working","OW364"
"2023-05-04 11:00",52.075,"Working","OW364"
"2023-05-04 12:00",52.082,"Working","OW364"
"2023-05-04 13:00",52.032,"Working","OW364"
"2023-05-04 14:00",52.014,"Working","OW364"
"2023-05-04 15:00",51.974,"Working","OW364"
"2023-05-04 16:00",51.981,"Working","OW364"
"2023-05-04 17:00",52.015,"Working","OW364"
"2023-05-04 18:00",52.064,"Working","OW364"
"2023-05-04 19:00",52.147,"Working","OW364"
"2023-05-04 20:00",52.123,"Working","OW364"
"2023-05-04 21:00",52.159,"Working","OW364"
"2023-05-04 22:00",51.995,"Working","OW364"
"2023-05-04 23:00",51.947,"Working","OW364"
"2023-05-05 00:00",51.908,"Working","OW364"
"2023-05-05 01:00",51.992,"Working","OW364"
"2023-05-05 02:00",52.016,"Working","OW364"
"2023-05-05 03:00",52.02,"Working","OW364"
"2023-05-05 04:00",52.021,"Working","OW364"
"2023-05-05 05:00",51.924,"Working","OW364"
"2023-05-05 06:00",51.9,"Working","OW364"
"2023-05-05 07:00",51.887,"Working","OW364"
"2023-05-05 08:00",51.857,"Working","OW364"
"2023-05-05 09:00",51.848,"Working","OW364"
"2023-05-05 10:00",51.977,"Working","OW364"
"2023-05-05 11:00",52.008,"Working","OW364"
"2023-05-05 12:00",51.936,"Working","OW364"
"2023-05-05 13:00",51.867,"Working","OW364"
"2023-05-05 14:00",51.872,"Working","OW364"
"2023-05-05 15:00",51.858,"Working","OW364"
"2023-05-05 16:00",51.862,"Working","OW364"
"2023-05-05 17:00",51.932,"Working","OW364"
"2023-05-05 18:00",52.125,"Working","OW364"
"2023-05-05 19:00",52.015,"Working","OW364"
"2023-05-05 20:00",52.005,"Working","OW364"
"2023-05-05 21:00",51.935,"Working","OW364"
"2023-05-05 22:00",51.893,"Working","OW364"
"2023-05-05 23:00",51.884,"Working","OW364"
"2023-05-06 00:00",51.821,"Working","OW364"
"2023-05-06 01:00",51.862,"Working","OW364"
"2023-05-06 02:00",51.916,"Working","OW364"
"2023-05-06 03:00",51.953,"Working","OW364"
"2023-05-06 04:00",51.928,"Working","OW364"
"2023-05-06 05:00",51.866,"Working","OW364"
"2023-05-06 06:00",51.809,"Working","OW364"
"2023-05-06 07:00",51.797,"Working","OW364"
"2023-05-06 08:00",51.848,"Working","OW364"
"2023-05-06 09:00",51.829,"Working","OW364"
"2023-05-06 10:00",51.919,"Working","OW364"
"2023-05-06 11:00",51.936,"Working","OW364"
"2023-05-06 12:00",51.843,"Working","OW364"
"2023-05-06 13:00",51.76,"Working","OW364"
"2023-05-06 14:00",51.732,"Working","OW364"
"2023-05-06 15:00",51.749,"Working","OW364"
"2023-05-06 16:00",51.726,"Working","OW364"
"2023-05-06 17:00",51.753,"Working","OW364"
"2023-05-06 18:00",51.813,"Working","OW364"
"2023-05-06 19:00",51.818,"Working","OW364"
"2023-05-06 20:00",51.816,"Working","OW364"
"2023-05-06 21:00",51.718,"Working","OW364"
"2023-05-06 22:00",51.691,"Working","OW364"
"2023-05-06 23:00",51.656,"Working","OW364"
"2023-05-07 00:00",51.644,"Working","OW364"
"2023-05-07 01:00",51.708,"Working","OW364"
"2023-05-07 02:00",51.786,"Working","OW364"
"2023-05-07 03:00",51.826,"Working","OW364"
"2023-05-07 04:00",51.844,"Working","OW364"
"2023-05-07 05:00",51.662,"Working","OW364"
"2023-05-07 06:00",51.628,"Working","OW364"
"2023-05-07 07:00",51.608,"Working","OW364"
"2023-05-07 08:00",51.594,"Working","OW364"
"2023-05-07 09:00",51.584,"Working","OW364"
"2023-05-07 10:00",51.673,"Working","OW364"
"2023-05-07 11:00",51.686,"Working","OW364"
"2023-05-07 12:00",51.686,"Working","OW364"
"2023-05-07 13:00",51.607,"Working","OW364"
"2023-05-07 14:00",51.562,"Working","OW364"
"2023-05-07 15:00",51.546,"Working","OW364"
"2023-05-07 16:00",51.552,"Working","OW364"
"2023-05-07 17:00",51.619,"Working","OW364"
"2023-05-07 18:00",51.552,"Working","OW364"
"2023-05-07 19:00",51.749,"Working","OW364"
"2023-05-07 20:00",51.805,"Working","OW364"
"2023-05-07 21:00",51.621,"Working","OW364"
"2023-05-07 22:00",51.55,"Working","OW364"
"2023-05-07 23:00",51.522,"Working","OW364"
"2023-05-08 00:00",51.505,"Working","OW364"
"2023-05-08 01:00",51.477,"Working","OW364"
"2023-05-08 02:00",51.455,"Working","OW364"
"2023-05-08 03:00",51.547,"Working","OW364"
"2023-05-08 04:00",51.564,"Working","OW364"
"2023-05-08 05:00",51.566,"Working","OW364"
"2023-05-08 06:00",51.474,"Working","OW364"
"2023-05-08 07:00",51.438,"Working","OW364"
"2023-05-08 08:00",51.421,"Working","OW364"
"2023-05-08 09:00",51.41,"Working","OW364"
"2023-05-08 10:00",51.402,"Working","OW364"
"2023-05-08 11:00",51.393,"Working","OW364"
"2023-05-08 12:00",51.529,"Working","OW364"
"2023-05-08 13:00",51.574,"Working","OW364"
"2023-05-08 14:00",51.569,"Working","OW364"
"2023-05-08 15:00",51.415,"Working","OW364"
"2023-05-08 16:00",51.379,"Working","OW364"
"2023-05-08 17:00",51.381,"Working","OW364"
"2023-05-08 18:00",51.397,"Working","OW364"
"2023-05-08 19:00",51.454,"Working","OW364"
"2023-05-08 20:00",51.545,"Working","OW364"
"2023-05-08 21:00",51.584,"Working","OW364"
"2023-05-08 22:00",51.662,"Working","OW364"
"2023-05-08 23:00",51.49,"Working","OW364"
"2023-05-09 00:00",51.392,"Working","OW364"
"2023-05-09 01:00",51.435,"Working","OW364"
"2023-05-09 02:00",51.308,"Working","OW364"
"2023-05-09 03:00",51.501,"Working","OW364"
"2023-05-09 04:00",51.5,"Working","OW364"
"2023-05-09 05:00",51.519,"Working","OW364"
"2023-05-09 06:00",51.365,"Working","OW364"
"2023-05-09 07:00",51.296,"Working","OW364"
"2023-05-09 08:00",51.265,"Working","OW364"
"2023-05-09 09:00",51.251,"Working","OW364"
"2023-05-09 10:00",51.241,"Working","OW364"
"2023-05-09 11:00",51.323,"Working","OW364"
"2023-05-09 12:00",51.369,"Working","OW364"
"2023-05-09 13:00",51.379,"Working","OW364"
"2023-05-09 14:00",51.315,"Working","OW364"
"2023-05-09 15:00",51.242,"Working","OW364"
"2023-05-09 16:00",51.25,"Working","OW364"
"2023-05-09 17:00",51.246,"Working","OW364"
"2023-05-09 18:00",51.225,"Working","OW364"
"2023-05-09 19:00",51.442,"Working","OW364"
"2023-05-09 20:00",51.498,"Working","OW364"
"2023-05-09 21:00",51.48,"Working","OW364"
"2023-05-09 22:00",51.241,"Working","OW364"
"2023-05-09 23:00",51.219,"Working","OW364"
"2023-05-10 00:00",51.32,"Working","OW364"
"2023-05-10 01:00",51.305,"Working","OW364"
"2023-05-10 02:00",51.211,"Working","OW364"
"2023-05-10 03:00",51.38,"Working","OW364"
"2023-05-10 04:00",51.408,"Working","OW364"